When you browse on this site, cookies collect data to enhance your experience and personalize the content and advertising you see.
Visit our Privacy Policy to learn more. By continuing to use the site, you agree to this use of cookies and data.
  • In Belgium
  • List of Countries
  • For 7 days
  • Water Temperature
  • Weather Map
  • Weather Widgets
  • user-avatar
    Login

    Hourly Weather Fier

    Today, 20 October, Sunday

    Time Temperature Precipitation Wind Pressure Humidity
    00:00 +20°C° 0 mm 1 mps 763 mmHg 74%
    01:00 +19°C° 0 mm 2 mps 763 mmHg 74%
    02:00 +19°C° 0 mm 1 mps 763 mmHg 74%
    03:00 +19°C° 0 mm 1 mps 763 mmHg 74%
    04:00 +19°C° 0 mm 1 mps 763 mmHg 74%
    05:00 +19°C° 0 mm 1 mps 763 mmHg 71%
    06:00 +20°C° 0 mm 1 mps 764 mmHg 69%
    07:00 +19°C° 0 mm 2 mps 764 mmHg 67%
    08:00 +22°C° 0 mm 1 mps 764 mmHg 61%
    09:00 +24°C° 0 mm 1 mps 764 mmHg 55%
    10:00 +26°C° 0 mm 1 mps 764 mmHg 49%
    11:00 +26°C° 0 mm 1 mps 764 mmHg 47%
    12:00 +27°C° 0 mm 2 mps 764 mmHg 46%
    13:00 +27°C° 0 mm 3 mps 764 mmHg 44%
    14:00 +27°C° 0 mm 3 mps 763 mmHg 49%
    15:00 +26°C° 0 mm 3 mps 763 mmHg 55%
    16:00 +25°C° 0 mm 2 mps 763 mmHg 60%
    17:00 +24°C° 0 mm 2 mps 763 mmHg 66%
    18:00 +22°C° 0 mm 1 mps 764 mmHg 72%
    19:00 +19°C° 0 mm 0 mps 764 mmHg 77%
    20:00 +19°C° 0 mm 0 mps 764 mmHg 78%
    21:00 +20°C° 0 mm 1 mps 764 mmHg 79%
    22:00 +20°C° 0 mm 1 mps 765 mmHg 81%
    23:00 +20°C° 0 mm 1 mps 765 mmHg 81%

    Tomorrow, 21 October, Monday

    Time Temperature Precipitation Wind Pressure Humidity
    00:00 +20°C° 0 mm 1 mps 765 mmHg 80%
    01:00 +20°C° 0 mm 1 mps 765 mmHg 80%
    02:00 +19°C° 0 mm 1 mps 765 mmHg 79%
    03:00 +19°C° 0 mm 1 mps 764 mmHg 78%
    04:00 +19°C° 0 mm 1 mps 764 mmHg 77%
    05:00 +20°C° 0 mm 1 mps 764 mmHg 73%
    06:00 +20°C° 0 mm 1 mps 764 mmHg 70%
    07:00 +20°C° 0 mm 1 mps 764 mmHg 66%
    08:00 +22°C° 0 mm 1 mps 765 mmHg 59%
    09:00 +24°C° 0 mm 2 mps 765 mmHg 52%
    10:00 +26°C° 0 mm 2 mps 765 mmHg 45%
    11:00 +27°C° 0 mm 2 mps 765 mmHg 45%
    12:00 +27°C° 0 mm 3 mps 764 mmHg 44%
    13:00 +28°C° 0 mm 4 mps 764 mmHg 43%
    14:00 +27°C° 0 mm 3 mps 764 mmHg 46%
    15:00 +26°C° 0 mm 3 mps 764 mmHg 50%
    16:00 +25°C° 0 mm 3 mps 763 mmHg 53%
    17:00 +24°C° 0 mm 3 mps 764 mmHg 58%
    18:00 +21°C° 0 mm 2 mps 764 mmHg 62%
    19:00 +21°C° 0 mm 1 mps 764 mmHg 67%
    20:00 +21°C° 0 mm 1 mps 764 mmHg 67%
    21:00 +21°C° 0 mm 1 mps 764 mmHg 66%
    22:00 +20°C° 0 mm 1 mps 764 mmHg 66%
    23:00 +20°C° 0 mm 1 mps 764 mmHg 65%

    Day after tomorrow, 22 October, Tuesday

    Time Temperature Precipitation Wind Pressure Humidity
    00:00 +20°C° 0 mm 1 mps 764 mmHg 65%
    01:00 +19°C° 0 mm 2 mps 764 mmHg 64%
    02:00 +19°C° 0 mm 2 mps 764 mmHg 64%
    03:00 +19°C° 0 mm 2 mps 764 mmHg 63%
    04:00 +18°C° 0 mm 2 mps 763 mmHg 63%
    05:00 +19°C° 0 mm 2 mps 763 mmHg 60%
    06:00 +19°C° 0 mm 2 mps 763 mmHg 58%
    07:00 +19°C° 0 mm 2 mps 763 mmHg 55%
    08:00 +23°C° 0 mm 2 mps 764 mmHg 48%
    09:00 +25°C° 0 mm 2 mps 764 mmHg 42%
    10:00 +27°C° 0 mm 2 mps 764 mmHg 35%
    11:00 +28°C° 0 mm 2 mps 763 mmHg 35%
    12:00 +29°C° 0 mm 3 mps 763 mmHg 35%
    13:00 +29°C° 0 mm 3 mps 763 mmHg 35%
    14:00 +28°C° 0 mm 3 mps 763 mmHg 40%
    15:00 +27°C° 0 mm 3 mps 762 mmHg 45%
    16:00 +26°C° 0 mm 3 mps 762 mmHg 50%
    17:00 +24°C° 0 mm 2 mps 762 mmHg 55%
    18:00 +23°C° 0 mm 2 mps 763 mmHg 59%
    19:00 +22°C° 0 mm 1 mps 763 mmHg 64%
    20:00 +21°C° 0 mm 1 mps 763 mmHg 63%
    21:00 +21°C° 0 mm 1 mps 763 mmHg 61%
    22:00 +21°C° 0 mm 1 mps 763 mmHg 60%
    23:00 +21°C° 0 mm 1 mps 763 mmHg 58%

    23 October, Wednesday

    Time Temperature Precipitation Wind Pressure Humidity
    00:00 +21°C° 0 mm 1 mps 763 mmHg 55%
    01:00 +20°C° 0 mm 1 mps 763 mmHg 53%
    02:00 +20°C° 0 mm 1 mps 763 mmHg 51%
    03:00 +20°C° 0 mm 1 mps 763 mmHg 49%
    04:00 +20°C° 0 mm 1 mps 763 mmHg 48%
    05:00 +19°C° 0 mm 2 mps 763 mmHg 47%
    06:00 +19°C° 0 mm 2 mps 763 mmHg 46%
    07:00 +20°C° 0 mm 2 mps 762 mmHg 45%
    08:00 +23°C° 0 mm 1 mps 762 mmHg 40%
    09:00 +25°C° 0 mm 1 mps 762 mmHg 34%
    10:00 +26°C° 0 mm 0 mps 762 mmHg 29%
    11:00 +28°C° 0 mm 1 mps 762 mmHg 29%
    12:00 +29°C° 0 mm 2 mps 762 mmHg 29%
    13:00 +29°C° 0 mm 3 mps 761 mmHg 29%
    14:00 +28°C° 0 mm 2 mps 761 mmHg 34%
    15:00 +27°C° 0 mm 2 mps 761 mmHg 39%
    16:00 +26°C° 0 mm 2 mps 761 mmHg 44%
    17:00 +24°C° 0 mm 2 mps 761 mmHg 48%
    18:00 +23°C° 0 mm 1 mps 761 mmHg 52%
    19:00 +22°C° 0 mm 1 mps 761 mmHg 56%
    20:00 +22°C° 0 mm 1 mps 761 mmHg 54%
    21:00 +21°C° 0 mm 1 mps 761 mmHg 52%
    22:00 +21°C° 0 mm 1 mps 762 mmHg 50%
    23:00 +21°C° 0 mm 1 mps 762 mmHg 48%

    24 October, Thursday

    Time Temperature Precipitation Wind Pressure Humidity
    00:00 +21°C° 0 mm 1 mps 761 mmHg 46%
    01:00 +20°C° 0 mm 1 mps 761 mmHg 44%
    02:00 +20°C° 0 mm 1 mps 761 mmHg 43%
    03:00 +19°C° 0 mm 2 mps 761 mmHg 42%
    04:00 +19°C° 0 mm 2 mps 761 mmHg 41%
    05:00 +19°C° 0 mm 2 mps 761 mmHg 40%
    06:00 +19°C° 0 mm 2 mps 761 mmHg 40%
    07:00 +19°C° 0 mm 2 mps 761 mmHg 39%
    08:00 +23°C° 0 mm 2 mps 760 mmHg 35%
    09:00 +25°C° 0 mm 2 mps 760 mmHg 32%
    10:00 +27°C° 0 mm 2 mps 760 mmHg 29%
    11:00 +28°C° 0 mm 2 mps 760 mmHg 30%
    12:00 +28°C° 0 mm 3 mps 760 mmHg 32%
    13:00 +29°C° 0 mm 4 mps 760 mmHg 34%
    14:00 +28°C° 0 mm 4 mps 759 mmHg 40%
    15:00 +26°C° 0 mm 3 mps 759 mmHg 46%
    16:00 +25°C° 0 mm 3 mps 759 mmHg 52%
    17:00 +24°C° 0 mm 2 mps 759 mmHg 58%
    18:00 +21°C° 0 mm 2 mps 759 mmHg 64%
    19:00 +21°C° 0 mm 1 mps 759 mmHg 71%
    20:00 +21°C° 0 mm 1 mps 759 mmHg 69%
    21:00 +19°C° 0 mm 2 mps 759 mmHg 67%
    22:00 +19°C° 0 mm 2 mps 760 mmHg 66%
    23:00 +19°C° 0 mm 2 mps 759 mmHg 63%

    25 October, Friday

    Time Temperature Precipitation Wind Pressure Humidity
    00:00 +20°C° 0 mm 1 mps 759 mmHg 61%
    01:00 +19°C° 0 mm 1 mps 759 mmHg 58%
    02:00 +18°C° 0 mm 2 mps 759 mmHg 56%
    03:00 +18°C° 0 mm 2 mps 759 mmHg 53%
    04:00 +18°C° 0 mm 2 mps 759 mmHg 51%
    05:00 +18°C° 0 mm 2 mps 759 mmHg 48%
    06:00 +18°C° 0 mm 2 mps 759 mmHg 45%
    07:00 +18°C° 0 mm 2 mps 759 mmHg 43%
    08:00 +20°C° 0 mm 2 mps 759 mmHg 38%
    09:00 +23°C° 0 mm 2 mps 759 mmHg 33%
    10:00 +26°C° 0 mm 2 mps 759 mmHg 29%
    11:00 +26°C° 0 mm 2 mps 759 mmHg 28%
    12:00 +27°C° 0 mm 3 mps 758 mmHg 28%
    13:00 +28°C° 0 mm 4 mps 758 mmHg 27%
    14:00 +27°C° 0 mm 4 mps 758 mmHg 33%
    15:00 +26°C° 0 mm 4 mps 758 mmHg 40%
    16:00 +25°C° 0 mm 4 mps 758 mmHg 46%
    17:00 +24°C° 0 mm 3 mps 758 mmHg 52%
    18:00 +21°C° 0 mm 3 mps 758 mmHg 58%
    19:00 +20°C° 0 mm 2 mps 758 mmHg 64%
    20:00 +20°C° 0 mm 2 mps 758 mmHg 63%
    21:00 +19°C° 0 mm 2 mps 758 mmHg 61%
    22:00 +19°C° 0 mm 2 mps 759 mmHg 60%
    23:00 +19°C° 0 mm 2 mps 758 mmHg 55%
    Show more